Zurück zum Katalog

SCOUT G-1 DEB

LostPO
NORAD 35526·DEBRIS·🇺🇸 United States

Gestartet Aug 25, 1988 von Vandenberg Space Force Base

Loading…

Nächste Überflüge (nächste 24 Stunden)

TLE

VeraltetSource: Space-Track

Epoche: Jul 3, 2026, 19:10 UTC

1 35526U 88074P   26184.79871815  .00001267  00000-0  15841-2 0  9992
2 35526  90.0443  23.7920 0072763 197.4531 178.1217 13.62766389192337

Verfolge SCOUT G-1 DEB in Echtzeit mit AllMySat

Download on the App Store